User: anonymous   Login
Location: Fremont
(37.5480°N, 121.9880°W)
Time: 10:45:40
(UTC-08:00)
Language:

Cosmos 1844 Rocket - Orbit

View from above orbital plane
View from above orbital plane
View from above satellite
View from above satellite

Ground track
Ground track

The orbit data is extracted from the following two-line orbital elements,

1 17974U 87041B   15061.51464117  .00000266  00000-0  15538-3 0  9999
2 17974 071.0065 234.6488 0015908 237.4298 180.8263 14.17151913438008
Epoch (UTC): 02 March 2015 12:21:04
Eccentricity: 0.0015908
inclination: 71.0065°
perigee height: 823 km
apogee height: 846 km
right ascension of ascending node: 234.6488°
argument of perigee: 237.4298°
revolutions per day: 14.17151913
mean anomaly at epoch: 180.8263°
orbit number at epoch: 43800

The dashed part of the orbit path shows where the satellite is in the earth's shadow,  

DLR